TIAIF MROC-MRQP

Flight info

Callsign TIAIF
Flight time 0h 19m
Altitude 5500
Route PASO DE PARRITA
Aircraft C182/L-V/N

Departure

Time 2026-04-21 02:47
Airport Juan Santamaría International Airport (MROC)

Arrival

Time 2026-04-21 03:07
Airport Quepos Managua Airport (MRQP)
Time Latitude Longitude Altitude Speed Heading
2026-04-21 02:42 9.99609 -84.21185 3005 ft 0 kts 67°
2026-04-21 02:43 9.99605 -84.21165 3007 ft 7 kts 134°
2026-04-21 02:43 9.99531 -84.21158 3005 ft 9 kts 233°
2026-04-21 02:44 9.99503 -84.21199 3001 ft 7 kts 216°
2026-04-21 02:44 9.99453 -84.21203 3000 ft 9 kts 162°
2026-04-21 02:44 9.99373 -84.21200 2999 ft 16 kts 234°
2026-04-21 02:44 9.99317 -84.21338 2991 ft 26 kts 249°
2026-04-21 02:45 9.99237 -84.21548 2974 ft 36 kts 249°
2026-04-21 02:45 9.99127 -84.21710 2969 ft 18 kts 170°
2026-04-21 02:45 9.99124 -84.21596 2975 ft 31 kts 70°
2026-04-21 02:45 9.99242 -84.21279 2989 ft 64 kts 69°
2026-04-21 02:46 9.99433 -84.20773 3048 ft 86 kts 69°
2026-04-21 02:46 9.99641 -84.20194 3206 ft 90 kts 69°
2026-04-21 02:46 9.99857 -84.19592 3368 ft 94 kts 78°
2026-04-21 02:46 9.99500 -84.19081 3450 ft 102 kts 169°
2026-04-21 02:47 9.98824 -84.19284 3598 ft 104 kts 208°
2026-04-21 02:47 9.98178 -84.19635 3768 ft 107 kts 208°
2026-04-21 02:47 9.97511 -84.20016 3926 ft 112 kts 208°
2026-04-21 02:47 9.96838 -84.20407 4084 ft 113 kts 210°
2026-04-21 02:48 9.96189 -84.20906 4221 ft 121 kts 223°
2026-04-21 02:48 9.95575 -84.21502 4369 ft 125 kts 223°
2026-04-21 02:48 9.94927 -84.22117 4521 ft 128 kts 222°
2026-04-21 02:48 9.94257 -84.22714 4667 ft 130 kts 219°
2026-04-21 02:49 9.93545 -84.23299 4787 ft 132 kts 219°
2026-04-21 02:49 9.92822 -84.23879 4943 ft 135 kts 215°
2026-04-21 02:49 9.91986 -84.24307 5074 ft 137 kts 203°
2026-04-21 02:49 9.91095 -84.24714 5204 ft 142 kts 199°
2026-04-21 02:50 9.90170 -84.24939 5347 ft 133 kts 184°
2026-04-21 02:50 9.89266 -84.25027 5506 ft 130 kts 183°
2026-04-21 02:50 9.88346 -84.25119 5493 ft 134 kts 184°
2026-04-21 02:50 9.87381 -84.25207 5488 ft 143 kts 183°
2026-04-21 02:51 9.86411 -84.25300 5492 ft 137 kts 184°
2026-04-21 02:51 9.85479 -84.25394 5514 ft 135 kts 183°
2026-04-21 02:51 9.84521 -84.25485 5469 ft 140 kts 183°
2026-04-21 02:51 9.83570 -84.25581 5481 ft 135 kts 184°
2026-04-21 02:52 9.82620 -84.25672 5484 ft 139 kts 184°
2026-04-21 02:52 9.81670 -84.25757 5481 ft 136 kts 184°
2026-04-21 02:52 9.80712 -84.25838 5491 ft 139 kts 183°
2026-04-21 02:52 9.79750 -84.25923 5475 ft 137 kts 183°
2026-04-21 02:53 9.78802 -84.26005 5475 ft 136 kts 184°
2026-04-21 02:53 9.77855 -84.26030 5466 ft 135 kts 178°
2026-04-21 02:53 9.76939 -84.26032 5472 ft 126 kts 178°
2026-04-21 02:53 9.76047 -84.26036 5464 ft 130 kts 178°
2026-04-21 02:54 9.75135 -84.26036 5465 ft 132 kts 178°
2026-04-21 02:54 9.74207 -84.26036 5476 ft 134 kts 179°
2026-04-21 02:54 9.73241 -84.26036 5455 ft 146 kts 178°
2026-04-21 02:54 9.72228 -84.26035 5450 ft 141 kts 179°
2026-04-21 02:55 9.71268 -84.26026 5432 ft 135 kts 178°
2026-04-21 02:55 9.70326 -84.26018 5429 ft 139 kts 179°
2026-04-21 02:55 9.69353 -84.26010 5438 ft 140 kts 178°
2026-04-21 02:55 9.68383 -84.26001 5436 ft 137 kts 178°
2026-04-21 02:56 9.67438 -84.26061 5421 ft 134 kts 180°
2026-04-21 02:56 9.65607 -84.25933 5422 ft 132 kts 171°
2026-04-21 02:56 9.64715 -84.25698 5412 ft 132 kts 160°
2026-04-21 02:57 9.63838 -84.25405 5410 ft 135 kts 160°
2026-04-21 02:57 9.62924 -84.25098 5312 ft 140 kts 160°
2026-04-21 02:57 9.61995 -84.24771 5206 ft 141 kts 158°
2026-04-21 02:57 9.61072 -84.24434 5116 ft 142 kts 159°
2026-04-21 02:58 9.60146 -84.24097 5026 ft 141 kts 159°
2026-04-21 02:58 9.59271 -84.23646 4927 ft 143 kts 141°
2026-04-21 02:58 9.58486 -84.23012 4828 ft 145 kts 140°
2026-04-21 02:58 9.57697 -84.22380 4737 ft 145 kts 140°
2026-04-21 02:59 9.56905 -84.21744 4605 ft 145 kts 140°
2026-04-21 02:59 9.56117 -84.21107 4487 ft 145 kts 140°
2026-04-21 02:59 9.55330 -84.20468 4361 ft 145 kts 140°
2026-04-21 02:59 9.54550 -84.19819 4238 ft 145 kts 136°
2026-04-21 03:00 9.53839 -84.19112 4116 ft 141 kts 134°
2026-04-21 03:00 9.53149 -84.18413 3992 ft 139 kts 134°
2026-04-21 03:00 9.52477 -84.17732 3864 ft 135 kts 134°
2026-04-21 03:00 9.51823 -84.17055 3740 ft 133 kts 130°
2026-04-21 03:01 9.51462 -84.16553 3661 ft 134 kts 123°
2026-04-21 03:01 9.50950 -84.15773 3548 ft 132 kts 121°
2026-04-21 03:01 9.50465 -84.14991 3441 ft 131 kts 121°
2026-04-21 03:01 9.49975 -84.14218 3330 ft 130 kts 121°
2026-04-21 03:02 9.49485 -84.13446 3222 ft 131 kts 122°
2026-04-21 03:02 9.49008 -84.12695 3095 ft 121 kts 121°
2026-04-21 03:02 9.48549 -84.11983 2935 ft 119 kts 121°
2026-04-21 03:02 9.48092 -84.11341 2715 ft 108 kts 135°
2026-04-21 03:03 9.47387 -84.11157 2456 ft 107 kts 189°
2026-04-21 03:03 9.46654 -84.11312 2146 ft 107 kts 205°
2026-04-21 03:03 9.45910 -84.11650 1340 ft 131 kts 219°
2026-04-21 03:03 9.45121 -84.12270 272 ft 150 kts 226°
2026-04-21 03:04 9.44442 -84.12887 48 ft 112 kts 220°
2026-04-21 03:04 9.43929 -84.13320 164 ft 83 kts 219°
2026-04-21 03:04 9.43466 -84.13645 398 ft 85 kts 199°
2026-04-21 03:04 9.42919 -84.13485 572 ft 87 kts 131°
2026-04-21 03:05 9.42661 -84.12898 643 ft 100 kts 95°
2026-04-21 03:05 9.42808 -84.12213 621 ft 98 kts 60°
2026-04-21 03:05 9.43316 -84.11761 657 ft 101 kts 27°
2026-04-21 03:05 9.44008 -84.11602 688 ft 103 kts
2026-04-21 03:06 9.44650 -84.11715 631 ft 89 kts 339°
2026-04-21 03:06 9.44958 -84.12172 551 ft 80 kts 269°
2026-04-21 03:06 9.44692 -84.12684 122 ft 89 kts 220°
2026-04-21 03:06 9.44264 -84.13037 49 ft 70 kts 220°
2026-04-21 03:07 9.43991 -84.13272 45 ft 19 kts 258°
2026-04-21 03:07 9.44007 -84.13315 45 ft 1 kts 207°
2026-04-21 03:07 9.43982 -84.13330 42 ft 7 kts 206°
2026-04-21 03:07 9.43969 -84.13331 42 ft 0 kts 121°
2026-04-21 03:17 9.43961 -84.13328 43 ft 10 kts 163°
2026-04-21 03:17 9.44055 -84.13215 47 ft 51 kts 41°
2026-04-21 03:18 9.44458 -84.12875 60 ft 99 kts 40°
2026-04-21 03:18 9.44998 -84.12593 580 ft 76 kts 351°
2026-04-21 03:18 9.45463 -84.12961 792 ft 97 kts 316°
2026-04-21 03:18 9.46071 -84.13441 819 ft 125 kts 324°
2026-04-21 03:19 9.46758 -84.13997 1012 ft 126 kts 320°
2026-04-21 03:19 9.47422 -84.14577 1208 ft 126 kts 320°
2026-04-21 03:19 9.48083 -84.15152 1448 ft 122 kts 320°
2026-04-21 03:19 9.48694 -84.15687 1831 ft 112 kts 320°
2026-04-21 03:20 9.49257 -84.16187 2189 ft 101 kts 320°
2026-04-21 03:20 9.49776 -84.16652 2429 ft 98 kts 320°
2026-04-21 03:20 9.50280 -84.17106 2670 ft 95 kts 320°
2026-04-21 03:20 9.50775 -84.17545 2900 ft 94 kts 321°
2026-04-21 03:21 9.51270 -84.17960 3127 ft 91 kts 321°
2026-04-21 03:21 9.51747 -84.18364 3353 ft 89 kts 320°
2026-04-21 03:21 9.52205 -84.18755 3564 ft 86 kts 320°
2026-04-21 03:21 9.52662 -84.19134 3797 ft 82 kts 322°
2026-04-21 03:22 9.53096 -84.19469 4021 ft 77 kts 323°
2026-04-21 03:22 9.53508 -84.19792 4247 ft 72 kts 323°
2026-04-21 03:22 9.53890 -84.20093 4475 ft 66 kts 322°
2026-04-21 03:22 9.54247 -84.20338 4684 ft 59 kts 327°
2026-04-21 03:23 9.54620 -84.20580 4793 ft 68 kts 328°
2026-04-21 03:23 9.55037 -84.20854 4932 ft 75 kts 328°
2026-04-21 03:23 9.55491 -84.21165 5073 ft 82 kts 328°
2026-04-21 03:23 9.55974 -84.21499 5217 ft 87 kts 328°
2026-04-21 03:24 9.56480 -84.21846 5371 ft 88 kts 328°
2026-04-21 03:24 9.56988 -84.22200 5524 ft 89 kts 328°
2026-04-21 03:24 9.57507 -84.22556 5675 ft 91 kts 334°
2026-04-21 03:24 9.58122 -84.22690 5814 ft 91 kts 352°
2026-04-21 03:25 9.58727 -84.22788 5960 ft 90 kts 354°
2026-04-21 03:25 9.59354 -84.22856 6123 ft 92 kts 356°
2026-04-21 03:25 9.60005 -84.22929 6267 ft 93 kts 356°
2026-04-21 03:25 9.60632 -84.23008 6400 ft 87 kts 355°
2026-04-21 03:26 9.61262 -84.23083 6421 ft 96 kts 356°
2026-04-21 03:26 9.61962 -84.23172 6450 ft 107 kts 356°
2026-04-21 03:26 9.62744 -84.23261 6438 ft 115 kts 356°
2026-04-21 03:26 9.63585 -84.23355 6414 ft 128 kts 356°
2026-04-21 03:27 9.64457 -84.23451 6436 ft 125 kts 356°
2026-04-21 03:27 9.65307 -84.23541 6437 ft 120 kts 355°
2026-04-21 03:27 9.66135 -84.23628 6435 ft 119 kts 356°
2026-04-21 03:27 9.66955 -84.23722 6443 ft 120 kts 356°
2026-04-21 03:28 9.67786 -84.23817 6448 ft 120 kts 356°
2026-04-21 03:28 9.68621 -84.23910 6459 ft 121 kts 356°
2026-04-21 03:28 9.69462 -84.23991 6464 ft 122 kts 356°
2026-04-21 03:28 9.70304 -84.24087 6454 ft 120 kts 356°
2026-04-21 03:29 9.71136 -84.24168 6467 ft 121 kts 359°
2026-04-21 03:29 9.71979 -84.24207 6483 ft 123 kts 359°
2026-04-21 03:29 9.72828 -84.24204 6467 ft 120 kts
2026-04-21 03:29 9.73663 -84.24196 6473 ft 120 kts
2026-04-21 03:30 9.74496 -84.24193 6473 ft 119 kts
2026-04-21 03:30 9.75322 -84.24191 6481 ft 120 kts
2026-04-21 03:30 9.76154 -84.24192 6482 ft 119 kts
2026-04-21 03:30 9.76983 -84.24196 6482 ft 119 kts
2026-04-21 03:31 9.77814 -84.24209 6492 ft 120 kts
2026-04-21 03:31 9.78665 -84.24215 6513 ft 126 kts
2026-04-21 03:31 9.79548 -84.24219 6496 ft 124 kts
2026-04-21 03:31 9.80410 -84.24230 6500 ft 123 kts
2026-04-21 03:32 9.81259 -84.24236 6510 ft 121 kts
2026-04-21 03:32 9.82088 -84.24246 6509 ft 122 kts
2026-04-21 03:32 9.82936 -84.24223 6500 ft 121 kts
2026-04-21 03:32 9.83789 -84.24179 6412 ft 127 kts
2026-04-21 03:33 9.84686 -84.24141 6294 ft 131 kts
2026-04-21 03:33 9.85601 -84.24104 6178 ft 134 kts
2026-04-21 03:33 9.86549 -84.24065 6094 ft 138 kts
2026-04-21 03:33 9.87502 -84.24032 5973 ft 135 kts
2026-04-21 03:34 9.88466 -84.23991 5908 ft 145 kts
2026-04-21 03:34 9.89470 -84.23957 5748 ft 141 kts
2026-04-21 03:34 9.90447 -84.23920 5633 ft 142 kts
2026-04-21 03:34 9.91441 -84.23880 5528 ft 142 kts
2026-04-21 03:35 9.92388 -84.23840 5525 ft 131 kts
2026-04-21 03:35 9.93298 -84.23813 5458 ft 135 kts
2026-04-21 03:35 9.94247 -84.23774 5281 ft 138 kts
2026-04-21 03:35 9.95205 -84.23737 5071 ft 134 kts
2026-04-21 03:36 9.96039 -84.23705 4850 ft 109 kts
2026-04-21 03:36 9.96783 -84.23682 4540 ft 108 kts
2026-04-21 03:36 9.97475 -84.23650 4404 ft 100 kts
2026-04-21 03:36 9.98178 -84.23614 4152 ft 100 kts
2026-04-21 03:37 9.98545 -84.23076 3825 ft 97 kts 68°
2026-04-21 03:37 9.98818 -84.22419 3225 ft 109 kts 73°
2026-04-21 03:37 9.99073 -84.21733 2975 ft 88 kts 69°
2026-04-21 03:37 9.99253 -84.21256 2991 ft 51 kts 69°
2026-04-21 03:38 9.99365 -84.21165 3000 ft 17 kts 11°
2026-04-21 03:38 9.99425 -84.21053 3010 ft 22 kts 71°
2026-04-21 03:38 9.99494 -84.20938 3021 ft 14 kts 14°
2026-04-21 03:38 9.99566 -84.20990 3021 ft 15 kts 268°
2026-04-21 03:39 9.99534 -84.21115 3008 ft 20 kts 269°
2026-04-21 03:39 9.99608 -84.21185 3005 ft 11 kts 22°
2026-04-21 03:39 9.99613 -84.21179 3006 ft 0 kts 71°